Weather History for Riverside March, CA

Change the Weather History Date:

Saturday, February 22, 2014

  Actual Average Record
Temperature  
Mean Temperature 56 °F -  
Max Temperature 74 °F 62 °F 89 °F (2002)
Min Temperature 39 °F 41 °F 26 °F (2013)
Degree Days  
Heating Degree Days 8    
Growing Degree Days 6 (Base 50)    
Moisture  
Dew Point 27 °F    
Average Humidity 36    
Maximum Humidity 54    
Minimum Humidity 16    
Precipitation  
Precipitation 0.00 in - - ()
Sea Level Pressure  
Sea Level Pressure 29.91 in    
Wind  
Wind Speed 2 mph (NW)    
Max Wind Speed 12 mph    
Max Gust Speed -    
Visibility 10 miles    
Events      
Averages and records for this station are not official NWS values.
T = Trace of Precipitation, MM = Missing Value Source: NWS Daily Summary

Daily Weather History Graph

Daily Weather History Graph

Search for Another Location

Airport:

Trip Planner

Search our weather history database for the weather conditions in past years. The results will help you decide how hot, cold, wet, or windy it might be!

Date:

Astronomy

Feb. 22, 2014 Rise Set
Actual Time 6:25 AM PST 5:39 PM PST
Civil Twilight 6:00 AM PST 6:04 PM PST
Nautical Twilight 5:31 AM PST 6:33 PM PST
Astronomical Twilight 5:02 AM PST 7:02 PM PST
Moon 12:19 AM PST (2/22) 11:01 AM PST (2/22)
Length of Visible Light 12h 04m
Length of Day
11h 13m
Waning Gibbous, 49% of the Moon is Illuminated
Feb 22
Waning Gibbous
Mar 1
New
Mar 8
First Quarter
Mar 16
Full
Mar 23
Last Quarter

Hourly Weather History & Observations

Time (PST) Temp. Dew Point Humidity Pressure Visibility Wind Dir Wind Speed Gust Speed Precip Events Conditions
12:58 AM 45.0 °F 21.9 °F 40% 29.92 in 10.0 mi Calm Calm - N/A   Clear
1:58 AM 42.6 °F 21.7 °F 44% 29.91 in 10.0 mi Calm Calm - N/A   Clear
2:58 AM 43.2 °F 23.2 °F 45% 29.89 in 10.0 mi Calm Calm - N/A   Clear
3:58 AM 40.5 °F 21.4 °F 47% 29.91 in 10.0 mi Calm Calm - N/A   Clear
4:58 AM 41.2 °F 23.0 °F 48% 29.91 in 10.0 mi Calm Calm - N/A   Clear
5:58 AM 40.3 °F 23.5 °F 51% 29.91 in 10.0 mi Calm Calm - N/A   Clear
6:58 AM 39.6 °F 22.6 °F 51% 29.93 in 10.0 mi Calm Calm - N/A   Clear
7:58 AM 47.8 °F 28.0 °F 46% 29.94 in 10.0 mi SE 1.2 mph - N/A   Clear
8:58 AM 54.3 °F 28.4 °F 37% 29.94 in 10.0 mi SE 2.3 mph - N/A   Clear
9:58 AM 62.8 °F 29.7 °F 29% 29.94 in 10.0 mi ESE 4.6 mph - N/A   Clear
10:58 AM 67.3 °F 26.6 °F 22% 29.94 in 10.0 mi Variable 4.6 mph - N/A   Partly Cloudy
11:58 AM 73.0 °F 25.0 °F 17% 29.91 in 10.0 mi NNW 4.6 mph - N/A   Partly Cloudy
12:58 PM 73.2 °F 24.8 °F 16% 29.88 in 8.0 mi North 5.8 mph - N/A   Partly Cloudy
1:58 PM 73.0 °F 28.0 °F 19% 29.87 in 10.0 mi NW 5.8 mph - N/A   Partly Cloudy
2:58 PM 74.7 °F 26.1 °F 16% 29.86 in 10.0 mi NW 11.5 mph - N/A   Clear
3:58 PM 72.3 °F 30.7 °F 22% 29.86 in 10.0 mi NW 9.2 mph - N/A   Clear
4:58 PM 70.2 °F 32.2 °F 25% 29.86 in 10.0 mi NW 8.1 mph - N/A   Clear
5:58 PM 64.9 °F 29.5 °F 26% 29.88 in 10.0 mi WNW 5.8 mph - N/A   Clear
6:58 PM 58.8 °F 30.4 °F 34% 29.89 in 10.0 mi WNW 2.3 mph - N/A   Clear
7:58 PM 54.5 °F 29.5 °F 38% 29.92 in 10.0 mi SW 2.3 mph - N/A   Clear
8:58 PM 57.9 °F 34.2 °F 41% 29.93 in 10.0 mi Calm Calm - N/A   Clear
9:58 PM 48.0 °F 28.9 °F 48% 29.93 in 10.0 mi North 2.3 mph - N/A   Clear
10:58 PM 46.9 °F 29.8 °F 51% 29.93 in 10.0 mi North 3.5 mph - N/A   Clear
11:58 PM 45.9 °F 30.0 °F 54% 29.94 in 10.0 mi Calm Calm - N/A   Clear